Retour au catalogue

SL-16 DEB

ActifLEO
NORAD 39857·DEBRIS·🇷🇺 Russia

Lancé Dec 25, 1992 depuis Baikonur Cosmodrome

Loading…

Prochains Passages (prochaines 24 heures)

TLE

FraisSource: Space-Track

Époque: Sep 14, 2026, 14:20 UTC

1 39857U 92093LK  26257.59740451  .00000907  00000-0  39070-3 0  9990
2 39857  70.9210 337.6674 0055040  80.5341 280.2003 14.26466723635802

Suivez SL-16 DEB en temps réel avec AllMySat

Download on the App Store